SAS4627 EGLL-EHAM

Flight info

Callsign SAS4627
Flight time N/A
Altitude 27000
Route BPK Q295 BRAIN M197 REDFA
Aircraft A320/M-SDE3FGHIRWY/LB1

Departure

Time N/A
Airport London Heathrow Airport (EGLL)

Arrival

Time 2026-04-27 18:35
Airport Amsterdam Airport Schiphol (EHAM)
Time Latitude Longitude Altitude Speed Heading
2026-04-27 18:08 51.84322 0.85771 24821 ft 453 kts 73°
2026-04-27 18:08 51.85188 0.90679 25247 ft 455 kts 71°
2026-04-27 18:08 51.86109 0.95606 25662 ft 457 kts 70°
2026-04-27 18:08 51.87054 1.00557 26028 ft 462 kts 71°
2026-04-27 18:09 51.88006 1.05564 26331 ft 467 kts 71°
2026-04-27 18:09 51.88936 1.10545 26696 ft 469 kts 71°
2026-04-27 18:09 51.89862 1.15626 27087 ft 472 kts 72°
2026-04-27 18:09 51.90778 1.20753 27221 ft 470 kts 72°
2026-04-27 18:10 51.91654 1.25728 27248 ft 451 kts 72°
2026-04-27 18:10 51.92507 1.30581 27245 ft 445 kts 72°
2026-04-27 18:10 51.93357 1.35388 27247 ft 443 kts 72°
2026-04-27 18:10 51.94211 1.40200 27258 ft 442 kts 72°
2026-04-27 18:11 51.95052 1.44942 27251 ft 442 kts 72°
2026-04-27 18:11 51.95903 1.49745 27258 ft 443 kts 72°
2026-04-27 18:11 51.96754 1.54565 27254 ft 443 kts 72°
2026-04-27 18:11 51.97601 1.59389 27253 ft 444 kts 72°
2026-04-27 18:12 51.98434 1.64155 27250 ft 444 kts 72°
2026-04-27 18:12 51.99275 1.68979 27262 ft 444 kts 73°
2026-04-27 18:12 52.00082 1.73825 27268 ft 444 kts 74°
2026-04-27 18:12 52.00849 1.78689 27264 ft 445 kts 75°
2026-04-27 18:13 52.01582 1.83516 27273 ft 445 kts 75°
2026-04-27 18:13 52.02314 1.88402 27275 ft 445 kts 75°
2026-04-27 18:13 52.03053 1.93298 27302 ft 445 kts 75°
2026-04-27 18:13 52.03795 1.98183 27292 ft 445 kts 76°
2026-04-27 18:14 52.04534 2.03012 27293 ft 445 kts 75°
2026-04-27 18:14 52.05287 2.07922 27114 ft 445 kts 75°
2026-04-27 18:14 52.05788 2.11190 26874 ft 455 kts 75°
2026-04-27 18:14 52.06560 2.16230 26408 ft 460 kts 76°
2026-04-27 18:15 52.07581 2.22929 25807 ft 459 kts 76°
2026-04-27 18:15 52.08346 2.27973 25362 ft 457 kts 76°
2026-04-27 18:15 52.08848 2.31298 25067 ft 456 kts 76°
2026-04-27 18:15 52.09599 2.36291 24634 ft 454 kts 76°
2026-04-27 18:16 52.10347 2.41288 24250 ft 452 kts 76°
2026-04-27 18:16 52.11125 2.46226 23868 ft 450 kts 72°
2026-04-27 18:16 52.12286 2.50920 23431 ft 445 kts 62°
2026-04-27 18:16 52.13812 2.55270 22991 ft 440 kts 57°
2026-04-27 18:17 52.15353 2.59479 22554 ft 436 kts 57°
2026-04-27 18:17 52.16897 2.63725 22151 ft 431 kts 57°
2026-04-27 18:17 52.18415 2.67926 21749 ft 427 kts 57°
2026-04-27 18:17 52.19912 2.72079 21356 ft 423 kts 57°
2026-04-27 18:18 52.21381 2.76163 20977 ft 419 kts 57°
2026-04-27 18:18 52.22850 2.80255 20594 ft 415 kts 57°
2026-04-27 18:18 52.24300 2.84303 20217 ft 411 kts 58°
2026-04-27 18:18 52.25737 2.88324 19867 ft 407 kts 58°
2026-04-27 18:19 52.27137 2.92242 19501 ft 402 kts 58°
2026-04-27 18:19 52.28542 2.96167 19137 ft 398 kts 58°
2026-04-27 18:19 52.29936 3.00067 18758 ft 394 kts 58°
2026-04-27 18:19 52.31312 3.03920 18380 ft 390 kts 58°
2026-04-27 18:20 52.32658 3.07702 17976 ft 387 kts 58°
2026-04-27 18:20 52.34004 3.11494 17585 ft 384 kts 58°
2026-04-27 18:20 52.35344 3.15272 17176 ft 381 kts 58°
2026-04-27 18:20 52.36669 3.19017 16778 ft 378 kts 58°
2026-04-27 18:21 52.37967 3.22691 16395 ft 375 kts 58°
2026-04-27 18:21 52.39271 3.26385 16009 ft 372 kts 58°
2026-04-27 18:21 52.40563 3.30048 15628 ft 369 kts 59°
2026-04-27 18:21 52.41845 3.33692 15251 ft 367 kts 58°
2026-04-27 18:22 52.43099 3.37265 14887 ft 364 kts 59°
2026-04-27 18:22 52.44323 3.40907 14507 ft 363 kts 64°
2026-04-27 18:22 52.45189 3.44792 14149 ft 361 kts 75°
2026-04-27 18:22 52.45758 3.48751 13758 ft 359 kts 76°
2026-04-27 18:23 52.46325 3.52743 13351 ft 358 kts 76°
2026-04-27 18:23 52.46888 3.56702 12955 ft 354 kts 76°
2026-04-27 18:23 52.47452 3.60642 12562 ft 353 kts 76°
2026-04-27 18:23 52.48014 3.64564 12169 ft 351 kts 76°
2026-04-27 18:24 52.48561 3.68391 11790 ft 347 kts 76°
2026-04-27 18:24 52.49111 3.72261 11408 ft 347 kts 77°
2026-04-27 18:24 52.49654 3.76094 11031 ft 342 kts 76°
2026-04-27 18:24 52.50190 3.79888 10657 ft 339 kts 76°
2026-04-27 18:25 52.50712 3.83612 10300 ft 336 kts 76°
2026-04-27 18:25 52.51120 3.87352 9902 ft 330 kts 88°
2026-04-27 18:25 52.50753 3.91007 9483 ft 320 kts 112°
2026-04-27 18:25 52.49654 3.94072 9096 ft 303 kts 126°
2026-04-27 18:26 52.48426 3.96804 8704 ft 291 kts 127°
2026-04-27 18:26 52.47204 3.99445 8318 ft 292 kts 127°
2026-04-27 18:26 52.45999 4.02037 7932 ft 285 kts 127°
2026-04-27 18:26 52.44792 4.04603 7556 ft 282 kts 127°
2026-04-27 18:27 52.43572 4.07139 7283 ft 282 kts 128°
2026-04-27 18:27 52.42357 4.09636 7260 ft 281 kts 128°
2026-04-27 18:27 52.41121 4.12165 7263 ft 283 kts 127°
2026-04-27 18:27 52.39896 4.14651 7258 ft 283 kts 127°
2026-04-27 18:28 52.38665 4.17156 7257 ft 282 kts 128°
2026-04-27 18:28 52.37432 4.19662 7190 ft 284 kts 127°
2026-04-27 18:28 52.36187 4.22198 6859 ft 283 kts 127°
2026-04-27 18:28 52.34954 4.24699 6532 ft 281 kts 128°
2026-04-27 18:29 52.33736 4.27153 6187 ft 280 kts 127°
2026-04-27 18:29 52.32502 4.29617 5835 ft 279 kts 128°
2026-04-27 18:29 52.31268 4.32079 5476 ft 278 kts 127°
2026-04-27 18:29 52.30045 4.34498 5125 ft 278 kts 127°
2026-04-27 18:30 52.28813 4.36930 4748 ft 277 kts 128°
2026-04-27 18:30 52.27584 4.39370 4392 ft 277 kts 127°
2026-04-27 18:30 52.26357 4.41789 4033 ft 276 kts 128°
2026-04-27 18:30 52.25153 4.44188 3672 ft 274 kts 127°
2026-04-27 18:31 52.23939 4.46590 3325 ft 273 kts 128°
2026-04-27 18:31 52.22745 4.49001 2963 ft 272 kts 128°
2026-04-27 18:31 52.21760 4.51555 2604 ft 266 kts 104°
2026-04-27 18:31 52.21754 4.54484 2245 ft 259 kts 70°
2026-04-27 18:32 52.22573 4.57064 2009 ft 247 kts 58°
2026-04-27 18:32 52.23503 4.59256 2004 ft 220 kts 57°
2026-04-27 18:32 52.24266 4.61226 2008 ft 198 kts 59°
2026-04-27 18:32 52.24975 4.63152 1944 ft 197 kts 60°
2026-04-27 18:33 52.25688 4.65049 1493 ft 194 kts 58°
2026-04-27 18:33 52.26391 4.66900 869 ft 189 kts 59°
2026-04-27 18:33 52.27005 4.68661 615 ft 161 kts 65°
2026-04-27 18:33 52.27542 4.70200 552 ft 163 kts 57°
2026-04-27 18:34 52.28142 4.71737 400 ft 154 kts 56°
2026-04-27 18:34 52.28666 4.73116 165 ft 133 kts 47°
2026-04-27 18:34 52.29152 4.74373 29 ft 130 kts 47°
2026-04-27 18:34 52.29585 4.75456 15 ft 92 kts 57°
2026-04-27 18:35 52.29829 4.76115 13 ft 43 kts 59°
2026-04-27 18:35 52.29943 4.76391 13 ft 42 kts 55°
2026-04-27 18:35 52.30179 4.76665 17 ft 29 kts 28°
2026-04-27 18:35 52.30200 4.76685 16 ft 0 kts 31°
2026-04-27 18:36 52.30216 4.76697 16 ft 6 kts 23°
2026-04-27 18:37 52.30275 4.76752 12 ft 13 kts 31°
2026-04-27 18:37 52.30340 4.76890 11 ft 17 kts 58°
2026-04-27 18:37 52.30415 4.77033 9 ft 12 kts 19°
2026-04-27 18:37 52.30482 4.77033 7 ft 12 kts 18°
2026-04-27 18:38 52.30564 4.77070 7 ft 14 kts 338°
2026-04-27 18:38 52.30650 4.76962 4 ft 16 kts 290°
2026-04-27 18:38 52.30684 4.76854 2 ft 11 kts 325°
2026-04-27 18:38 52.30727 4.76886 0 ft 4 kts 63°
2026-04-27 18:39 52.30732 4.76893 0 ft 2 kts 41°
2026-04-27 18:39 52.30741 4.76907 0 ft 0 kts 43°